CW6037 Weather Reports


Display with metric or nautical units.
time (UTC)temp
F
wind
direction
speed
MPH
gust
MPH
rain 1hr
in
rain 24hr
in
rain mn
in
humidity
%
barometer
mb
20260510044650 44 269 1.0 2.0 0.00 0.50 0.00 96 1010.7
20260510044150 45 269 1.0 3.0 0.00 0.50 0.00 96 1010.8
20260510043911 45 269 1.0 3.0 0.00 0.50 0.00 96 1010.9
20260510043151 45 269 0.0 2.0 0.00 0.50 0.00 96 1010.8
20260510043140 45 269 0.0 1.0 0.00 0.50 0.00 96 1010.7
20260510042150 45 269 0.0 1.0 0.00 0.50 0.00 96 1010.6
20260510041646 45 269 0.0 2.0 0.00 0.50 0.00 96 1010.7
20260510041146 45 269 0.0 2.0 0.00 0.50 0.00 96 1010.6
20260510040645 45 269 0.0 1.0 0.00 0.50 0.00 96 1010.4
20260510040145 45 269 0.0 2.0 0.00 0.50 0.00 96 1010.3
20260510035640 45 269 0.0 2.0 0.00 0.50 0.50 96 1009.9
20260510035140 45 269 0.0 1.0 0.00 0.50 0.50 96 1009.7
20260510034638 45 269 0.0 1.0 0.00 0.50 0.50 96 1009.8
20260510034136 45 269 0.0 0.0 0.00 0.50 0.50 96 1009.8
20260510033636 45 269 0.0 1.0 0.00 0.50 0.50 96 1009.8
20260510033136 45 269 0.0 1.0 0.00 0.50 0.50 96 1009.6
20260510032637 45 269 0.0 1.0 0.00 0.50 0.50 96 1009.7
20260510032135 45 269 0.0 1.0 0.00 0.50 0.50 95 1009.8
20260510031859 45 269 0.0 0.0 0.00 0.50 0.50 95 1009.9
20260510031136 45 269 0.0 1.0 0.00 0.50 0.50 96 1009.8
20260510031129 45 269 0.0 1.0 0.00 0.50 0.50 95 1009.7
20260510030135 45 269 0.0 1.0 0.00 0.50 0.50 95 1009.7
20260510025854 45 269 1.0 2.0 0.00 0.50 0.50 95 1009.8
20260510025128 45 269 1.0 3.0 0.00 0.50 0.50 95 1009.8
20260510024845 46 269 1.0 3.0 0.00 0.50 0.50 95 1009.7
20260510024127 46 269 0.0 1.0 0.00 0.50 0.50 95 1009.9
20260510023626 46 269 0.0 1.0 0.00 0.50 0.50 94 1009.9
20260510023350 46 269 0.0 0.0 0.00 0.50 0.50 94 1009.7
20260510022624 46 269 0.0 0.0 0.00 0.50 0.50 95 1009.6
20260510022122 47 269 0.0 1.0 0.00 0.50 0.50 95 1009.6
20260510021621 47 269 0.0 1.0 0.00 0.50 0.50 95 1009.6
20260510021556 47 269 0.0 1.0 0.00 0.50 0.50 94 1009.6
20260510020845 47 269 0.0 1.0 0.00 0.50 0.50 94 1009.7
20260510020116 47 269 0.0 1.0 0.00 0.50 0.50 94 1009.8
20260510015616 47 269 0.0 1.0 0.00 0.50 0.50 94 1009.8
20260510015116 47 269 1.0 2.0 0.00 0.50 0.50 94 1009.8
20260510014616 48 269 1.0 2.0 0.00 0.50 0.50 94 1009.7
20260510014114 48 269 1.0 2.0 0.00 0.50 0.50 94 1009.5
20260510013614 48 269 0.0 1.0 0.00 0.50 0.50 94 1009.4
20260510013111 48 269 0.0 0.0 0.00 0.50 0.50 94 1009.4
20260510012611 49 269 0.0 0.0 0.00 0.50 0.50 93 1009.4
20260510012112 49 269 0.0 0.0 0.00 0.50 0.50 93 1009.5
20260510011608 49 269 0.0 0.0 0.00 0.50 0.50 93 1009.4
20260510011108 49 269 0.0 1.0 0.00 0.50 0.50 93 1009.4
20260510010610 50 269 0.0 1.0 0.00 0.50 0.50 93 1009.3
20260510010550 50 269 0.0 1.0 0.00 0.50 0.50 93 1009.1
20260510005606 50 269 0.0 1.0 0.00 0.50 0.50 93 1009.0
20260510005330 51 269 0.0 2.0 0.00 0.50 0.50 93 1009.2
20260510004602 51 269 1.0 2.0 0.00 0.50 0.50 93 1009.1
20260510004101 51 269 1.0 2.0 0.00 0.50 0.50 93 1009.1
20260510003604 51 269 0.0 2.0 0.00 0.50 0.50 93 1009.0
20260510003101 52 269 0.0 1.0 0.00 0.50 0.50 93 1009.0
20260510002819 52 269 0.0 1.0 0.00 0.50 0.50 93 1009.0
20260510002100 52 269 0.0 2.0 0.00 0.50 0.50 92 1009.1
20260510001600 53 269 1.0 2.0 0.00 0.50 0.50 92 1009.0
20260510001321 53 270 0.0 1.0 0.00 0.50 0.50 92 1009.1
20260510000601 53 270 0.0 1.0 0.00 0.50 0.50 91 1009.1
20260510000056 54 270 0.0 1.0 0.00 0.50 0.50 91 1008.8
20260510000043 54 270 0.0 3.0 0.00 0.50 0.50 91 1008.8
20260509235056 54 270 1.0 4.0 0.00 0.50 0.50 91 1008.8
20260509234553 54 242 1.0 4.0 0.00 0.50 0.50 91 1008.5
20260509234052 55 278 1.0 3.0 0.00 0.50 0.50 91 1008.5
20260509233552 55 277 0.0 2.0 0.00 0.50 0.50 90 1008.4
20260509233052 55 277 1.0 4.0 0.00 0.50 0.50 90 1008.4
20260509232816 55 277 2.0 6.0 0.00 0.50 0.50 89 1008.5
20260509232046 55 276 3.0 8.0 0.00 0.50 0.50 89 1008.5
20260509231546 55 256 3.0 8.0 0.00 0.50 0.50 90 1008.5
20260509231044 56 283 3.0 8.0 0.00 0.50 0.50 90 1008.4
20260509230802 56 269 1.0 8.0 0.00 0.50 0.50 91 1008.4
20260509230045 56 225 1.0 6.0 0.00 0.50 0.50 91 1008.3
20260509225544 56 168 2.0 7.0 0.00 0.50 0.50 91 1008.1
20260509225046 56 137 2.0 7.0 0.00 0.50 0.50 92 1008.2
20260509224544 56 273 2.0 7.0 0.00 0.50 0.50 92 1008.2
20260509224042 55 192 2.0 6.0 0.00 0.50 0.50 92 1008.2
20260509223541 55 250 2.0 5.0 0.00 0.50 0.50 93 1008.2
20260509223044 55 223 2.0 5.0 0.00 0.50 0.50 92 1008.2
20260509222539 55 173 2.0 6.0 0.00 0.50 0.50 93 1008.3
20260509222040 55 230 1.0 6.0 0.00 0.50 0.50 94 1008.3
20260509221542 55 236 1.0 4.0 0.00 0.50 0.50 94 1008.5
20260509221040 54 252 1.0 6.0 0.00 0.50 0.50 95 1008.5
20260509220538 54 274 1.0 6.0 0.00 0.50 0.50 95 1008.6
20260509220038 54 266 1.0 4.0 0.00 0.50 0.50 95 1008.7
20260509215538 54 267 2.0 4.0 0.01 0.50 0.50 95 1008.7
20260509215040 54 247 2.0 7.0 0.01 0.50 0.50 95 1008.7
20260509214803 54 244 2.0 7.0 0.01 0.50 0.50 95 1008.7
20260509214037 54 152 2.0 5.0 0.01 0.50 0.50 95 1008.8
20260509213538 53 259 2.0 5.0 0.01 0.50 0.50 95 1008.9
20260509213034 53 207 1.0 5.0 0.02 0.50 0.50 95 1008.9
20260509212534 53 219 1.0 6.0 0.02 0.50 0.50 94 1009.0
20260509212034 53 227 2.0 6.0 0.02 0.50 0.50 94 1009.1
20260509211534 53 217 2.0 7.0 0.02 0.50 0.50 94 1009.0
20260509211033 53 244 2.0 8.0 0.02 0.50 0.50 94 1009.0
20260509210534 53 21 2.0 8.0 0.02 0.50 0.50 94 1009.0
20260509210033 54 219 2.0 6.0 0.02 0.50 0.50 94 1009.0
20260509205534 53 215 3.0 9.0 0.02 0.49 0.49 94 1009.1
20260509205300 53 184 3.0 9.0 0.02 0.49 0.49 93 1009.1
20260509204534 53 261 2.0 8.0 0.03 0.49 0.49 94 1009.1
20260509204033 54 215 2.0 8.0 0.03 0.49 0.49 94 1009.0
20260509203534 54 191 2.0 8.0 0.03 0.49 0.49 94 1009.0
20260509203036 53 191 1.0 4.0 0.03 0.48 0.49 95 1009.0
20260509202533 53 244 2.0 5.0 0.03 0.48 0.48 95 1009.0
20260509202034 53 180 2.0 5.0 0.03 0.48 0.48 94 1009.0
20260509201753 53 219 2.0 6.0 0.03 0.48 0.48 95 1009.1
20260509201034 53 125 2.0 6.0 0.03 0.48 0.48 94 1009.2
20260509200532 53 169 2.0 7.0 0.03 0.48 0.48 95 1009.2
20260509200030 53 261 3.0 7.0 0.04 0.48 0.48 95 1009.3
20260509195529 53 260 3.0 10.0 0.03 0.47 0.47 95 1009.4
20260509195251 53 167 2.0 10.0 0.04 0.47 0.47 94 1009.6
20260509194543 53 153 2.0 8.0 0.04 0.46 0.46 94 1009.7
20260509194532 53 223 2.0 7.0 0.04 0.46 0.46 94 1009.6
20260509193756 53 278 2.0 8.0 0.04 0.46 0.46 94 1009.7
20260509193029 53 286 2.0 8.0 0.04 0.45 0.45 94 1009.8
20260509192528 53 280 2.0 6.0 0.04 0.45 0.45 94 1009.9
20260509192029 52 267 2.0 5.0 0.05 0.45 0.45 94 1009.9
20260509191525 52 274 2.0 7.0 0.06 0.45 0.45 94 1009.8
20260509191245 52 221 2.0 9.0 0.06 0.45 0.45 94 1009.9
20260509190522 52 213 3.0 9.0 0.07 0.45 0.45 93 1009.9
20260509190020 52 161 3.0 8.0 0.06 0.44 0.44 93 1010.0
20260509185518 52 5 3.0 9.0 0.06 0.44 0.44 93 1010.0
20260509185018 52 227 3.0 9.0 0.06 0.43 0.43 93 1010.2
20260509184519 53 212 3.0 12.0 0.05 0.42 0.43 93 1010.2
20260509184248 53 219 3.0 12.0 0.06 0.42 0.42 93 1010.0
20260509183517 53 185 2.0 8.0 0.06 0.42 0.42 94 1010.0
20260509183242 53 175 2.0 8.0 0.05 0.41 0.41 94 1010.0
20260509182515 53 217 2.0 7.0 0.05 0.41 0.41 94 1009.8
20260509182018 53 136 2.0 6.0 0.05 0.40 0.40 95 1010.0
20260509181736 53 165 1.0 6.0 0.04 0.39 0.40 94 1009.9
20260509181015 53 223 2.0 9.0 0.04 0.39 0.39 95 1010.0
20260509180515 53 238 2.0 9.0 0.04 0.38 0.38 94 1010.0
20260509180238 53 98 3.0 9.0 0.05 0.38 0.38 94 1010.0
20260509175507 53 5 2.0 8.0 0.05 0.37 0.38 94 1010.0
20260509175219 53 238 2.0 8.0 0.06 0.37 0.37 95 1010.0
20260509174724 53 256 2.0 8.0 0.07 0.37 0.37 95 1010.0
20260509174000 53 148 2.0 8.0 0.08 0.36 0.36 96 1010.0
20260509173458 53 289 2.0 8.0 0.09 0.36 0.36 95 1010.0
20260509173224 53 254 2.0 7.0 0.10 0.36 0.36 95 1010.0
20260509172458 53 183 2.0 6.0 0.10 0.36 0.36 95 1009.8
20260509172443 53 230 2.0 6.0 0.10 0.35 0.36 95 1009.9
20260509171455 53 207 1.0 4.0 0.10 0.36 0.35 95 1009.8
20260509170953 53 243 1.0 4.0 0.10 0.37 0.35 95 1009.8
20260509170454 53 214 2.0 6.0 0.10 0.36 0.34 95 1009.8
20260509165954 53 211 1.0 6.0 0.09 0.36 0.33 96 1010.0
20260509165453 53 227 0.0 2.0 0.08 0.35 0.32 96 1010.0
20260509164955 53 227 1.0 5.0 0.07 0.36 0.31 95 1010.0
20260509164714 53 227 2.0 5.0 0.06 0.37 0.30 95 1010.2
20260509163952 53 238 1.0 3.0 0.04 0.37 0.28 95 1010.0
20260509163454 53 218 1.0 4.0 0.04 0.37 0.27 95 1010.0
20260509162947 53 196 1.0 5.0 0.03 0.36 0.26 95 1010.0
20260509162444 53 207 1.0 5.0 0.03 0.36 0.26 95 1010.0
20260509161946 53 214 1.0 3.0 0.02 0.35 0.25 96 1010.0
20260509161445 53 215 1.0 2.0 0.03 0.35 0.25 96 1010.2
20260509160947 52 215 1.0 3.0 0.03 0.35 0.25 96 1010.3
20260509160445 52 215 1.0 3.0 0.02 0.34 0.24 96 1010.4
20260509155945 52 246 1.0 3.0 0.02 0.34 0.24 96 1010.5
20260509155445 52 225 1.0 3.0 0.03 0.34 0.24 96 1010.4
20260509155206 52 225 1.0 3.0 0.03 0.34 0.24 96 1010.5
20260509154707 52 211 1.0 3.0 0.03 0.34 0.24 97 1010.4
20260509153945 52 212 1.0 3.0 0.03 0.34 0.24 97 1010.5
20260509153445 52 237 1.0 2.0 0.03 0.33 0.23 97 1010.5
20260509152943 52 237 1.0 3.0 0.03 0.33 0.23 97 1010.5
20260509152443 51 250 1.0 4.0 0.03 0.33 0.23 97 1010.6
20260509151945 51 24 0.0 4.0 0.04 0.33 0.23 97 1010.6
20260509151441 51 230 0.0 2.0 0.03 0.32 0.22 97 1010.6
20260509150940 51 230 0.0 1.0 0.04 0.32 0.22 97 1010.7
20260509150439 51 230 0.0 1.0 0.04 0.32 0.22 97 1010.8
20260509145938 51 230 0.0 1.0 0.05 0.32 0.22 97 1011.0
20260509145435 51 230 0.0 1.0 0.04 0.31 0.21 97 1010.9
20260509144935 51 230 0.0 2.0 0.05 0.32 0.21 97 1010.9
20260509144436 51 230 0.0 2.0 0.05 0.32 0.21 97 1010.9
20260509143933 51 230 0.0 1.0 0.06 0.32 0.21 97 1010.9
20260509143434 51 230 0.0 1.0 0.05 0.31 0.20 97 1010.9
20260509142935 51 230 0.0 1.0 0.05 0.31 0.20 97 1010.9
20260509142431 51 230 0.0 1.0 0.06 0.31 0.20 97 1011.0
20260509141931 51 230 0.0 1.0 0.05 0.30 0.19 98 1011.0
20260509141648 50 230 0.0 1.0 0.06 0.30 0.19 97 1010.9
20260509141153 50 230 0.0 1.0 0.06 0.29 0.18 98 1010.9
20260509140428 50 230 0.0 1.0 0.06 0.29 0.18 97 1010.9
20260509135929 50 230 0.0 1.0 0.06 0.28 0.17 97 1011.0
20260509135657 50 230 0.0 1.0 0.06 0.28 0.17 97 1010.8
20260509134929 50 230 0.0 1.0 0.05 0.27 0.16 97 1010.7
20260509134429 50 230 0.0 1.0 0.06 0.27 0.16 97 1010.8
20260509133928 50 230 0.0 1.0 0.05 0.26 0.16 97 1010.8
20260509133429 50 230 0.0 1.0 0.05 0.26 0.15 97 1010.8
20260509132925 50 230 0.0 1.0 0.05 0.26 0.15 97 1010.7
20260509132427 50 230 0.0 1.0 0.04 0.25 0.14 97 1010.6
20260509131925 50 230 0.0 1.0 0.04 0.25 0.14 97 1010.7
20260509131424 49 230 0.0 0.0 0.03 0.24 0.13 97 1010.7
20260509130925 49 230 0.0 1.0 0.02 0.23 0.13 97 1010.7
20260509130422 49 230 0.0 1.0 0.02 0.23 0.12 97 1010.8
20260509125921 49 230 0.0 1.0 0.01 0.22 0.11 97 1010.8
20260509125421 49 230 0.0 1.0 0.01 0.22 0.11 97 1010.7
20260509125143 49 230 0.0 1.0 0.01 0.22 0.11 97 1010.6
20260509124423 49 230 0.0 1.0 0.00 0.21 0.10 97 1010.7
20260509124147 49 230 0.0 1.0 0.00 0.21 0.10 97 1010.6
20260509123419 49 230 0.0 1.0 0.00 0.21 0.10 97 1010.7
20260509122917 49 230 0.0 1.0 0.00 0.21 0.10 97 1010.6
20260509122416 49 230 0.0 1.0 0.00 0.21 0.10 98 1010.6
20260509121916 49 230 0.0 1.0 0.00 0.21 0.10 98 1010.7
20260509121416 49 230 0.0 1.0 0.00 0.21 0.10 97 1010.6
20260509120919 48 230 0.0 1.0 0.00 0.21 0.10 97 1010.6
20260509120417 48 230 0.0 2.0 0.00 0.21 0.10 97 1010.8
20260509115919 48 230 1.0 2.0 0.00 0.21 0.10 97 1010.7
20260509115416 48 230 0.0 2.0 0.00 0.21 0.10 97 1010.8
20260509115134 48 230 0.0 2.0 0.00 0.21 0.10 97 1010.7
20260509114416 48 230 0.0 1.0 0.00 0.21 0.10 97 1010.8
20260509114139 48 230 0.0 1.0 0.00 0.21 0.10 97 1010.8
20260509113414 47 230 0.0 1.0 0.00 0.21 0.10 97 1010.9
20260509112916 47 230 0.0 1.0 0.00 0.21 0.10 97 1010.9
20260509112417 47 230 0.0 1.0 0.00 0.21 0.10 97 1010.9
20260509112141 47 230 0.0 0.0 0.00 0.21 0.10 97 1011.0
20260509111414 47 230 0.0 0.0 0.01 0.21 0.10 97 1011.0
20260509110913 47 230 0.0 0.0 0.01 0.21 0.10 97 1011.0
20260509110412 47 230 0.0 0.0 0.01 0.21 0.10 97 1011.0
20260509105912 47 230 0.0 1.0 0.01 0.21 0.10 97 1011.0
20260509105410 47 230 0.0 1.0 0.01 0.21 0.10 97 1011.0
20260509104904 47 230 0.0 1.0 0.01 0.21 0.10 97 1011.0
20260509104405 47 230 0.0 1.0 0.01 0.21 0.10 97 1011.0
20260509103905 47 230 0.0 1.0 0.01 0.21 0.10 97 1011.1
20260509103404 46 230 0.0 1.0 0.01 0.21 0.10 97 1011.1
20260509102901 46 230 0.0 1.0 0.01 0.21 0.10 97 1011.2
20260509102400 46 230 0.0 1.0 0.01 0.21 0.10 97 1011.3
20260509101903 46 230 0.0 1.0 0.01 0.21 0.10 97 1011.4
20260509101358 46 230 0.0 1.0 0.00 0.20 0.09 97 1011.3
20260509100858 46 230 0.0 1.0 0.00 0.20 0.09 96 1011.2
20260509100358 46 230 0.0 1.0 0.00 0.20 0.09 96 1011.3
20260509095855 46 230 0.0 1.0 0.00 0.20 0.09 96 1011.2
20260509095357 46 230 0.0 1.0 0.00 0.20 0.09 96 1011.2
20260509094854 46 230 0.0 1.0 0.00 0.20 0.09 96 1011.1
20260509094355 46 230 0.0 1.0 0.00 0.20 0.09 96 1011.1
20260509093857 46 230 0.0 1.0 0.00 0.20 0.09 96 1011.1
20260509093352 46 230 0.0 1.0 0.00 0.20 0.09 96 1011.2
20260509092855 46 230 0.0 1.0 0.00 0.20 0.09 96 1011.3
20260509092350 46 230 0.0 1.0 0.00 0.20 0.09 96 1011.2
20260509091850 46 230 0.0 1.0 0.00 0.20 0.09 96 1011.2
20260509091346 46 230 0.0 0.0 0.01 0.20 0.09 96 1011.3
20260509090847 46 230 0.0 1.0 0.01 0.20 0.09 96 1011.3
20260509090558 46 230 0.0 1.0 0.01 0.20 0.09 96 1011.3
20260509085845 46 230 0.0 1.0 0.01 0.20 0.09 96 1011.4
20260509085615 46 230 0.0 1.0 0.01 0.20 0.09 96 1011.6
20260509084840 46 230 0.0 1.0 0.01 0.20 0.09 96 1011.6
20260509084343 46 230 0.0 0.0 0.01 0.20 0.09 96 1011.7
20260509083840 46 230 0.0 1.0 0.01 0.20 0.09 95 1011.6
20260509083605 46 230 0.0 1.0 0.02 0.20 0.09 95 1011.7
20260509082840 46 230 0.0 2.0 0.02 0.20 0.09 95 1011.7
20260509082340 46 230 0.0 2.0 0.02 0.20 0.09 95 1011.8
20260509081842 46 230 0.0 2.0 0.03 0.20 0.09 95 1011.7
20260509081338 46 230 0.0 2.0 0.02 0.19 0.08 95 1011.6
20260509080840 46 230 0.0 1.0 0.02 0.19 0.08 95 1011.7
20260509080338 46 230 0.0 1.0 0.03 0.19 0.08 95 1011.6
20260509080059 46 230 0.0 1.0 0.03 0.19 0.08 95 1011.5
20260509075340 46 230 0.0 1.0 0.03 0.19 0.08 95 1011.5
20260509074839 46 230 0.0 2.0 0.03 0.19 0.08 95 1011.4
20260509074603 46 230 0.0 2.0 0.04 0.19 0.08 95 1011.5
20260509073836 46 230 0.0 2.0 0.04 0.19 0.08 95 1011.5
20260509073336 46 230 0.0 1.0 0.04 0.18 0.07 95 1011.6
20260509072836 46 230 0.0 1.0 0.04 0.18 0.07 95 1011.7
20260509072336 46 230 0.0 1.0 0.04 0.18 0.07 95 1011.8
20260509071838 46 230 0.0 1.0 0.04 0.17 0.06 95 1011.8
20260509071559 46 230 0.0 1.0 0.04 0.17 0.06 95 1011.8
20260509070836 46 230 1.0 1.0 0.04 0.17 0.06 95 1011.8
20260509070338 46 230 1.0 1.0 0.03 0.16 0.05 95 1011.8
20260509065834 46 230 0.0 1.0 0.03 0.16 0.05 95 1011.8
20260509065334 46 230 0.0 1.0 0.04 0.16 0.05 95 1011.9
20260509064832 46 230 1.0 1.0 0.04 0.16 0.05 95 1011.9
20260509064333 46 230 1.0 2.0 0.03 0.15 0.04 94 1012.1
20260509063834 46 230 1.0 2.0 0.03 0.15 0.04 94 1012.2
20260509063333 45 230 0.0 2.0 0.02 0.14 0.03 94 1012.3
20260509063058 45 230 0.0 1.0 0.02 0.14 0.03 94 1012.4
20260509062330 45 230 0.0 0.0 0.02 0.14 0.03 94 1012.4
20260509061830 45 230 0.0 2.0 0.01 0.13 0.03 94 1012.5
20260509061332 45 230 0.0 2.0 0.02 0.13 0.02 94 1012.4
20260509060827 45 230 1.0 2.0 0.02 0.13 0.02 94 1012.5
20260509060328 45 230 1.0 2.0 0.02 0.13 0.02 94 1012.4
20260509055825 45 229 0.0 2.0 0.02 0.13 0.02 94 1012.3
20260509055326 45 229 0.0 2.0 0.01 0.12 0.01 94 1012.1
20260509055048 45 229 0.0 2.0 0.01 0.12 0.01 94 1012.0
20260509054326 45 229 0.0 1.0 0.01 0.12 0.01 94 1011.8
20260509053826 45 229 0.0 1.0 0.01 0.12 0.01 94 1011.8
20260509053326 45 229 0.0 1.0 0.01 0.12 0.01 94 1011.8
20260509052826 45 229 0.0 1.0 0.01 0.13 0.01 94 1011.9
20260509052322 45 229 0.0 1.0 0.01 0.13 0.01 94 1012.0
20260509051822 45 229 0.0 1.0 0.01 0.13 0.01 94 1012.0
20260509051322 45 229 0.0 1.0 0.00 0.13 0.00 94 1012.1
20260509050820 45 229 0.0 0.0 0.00 0.14 0.00 94 1012.0
20260509050320 45 229 0.0 1.0 0.00 0.16 0.00 94 1012.0
20260509045823 44 229 0.0 1.0 0.00 0.17 0.00 94 1012.0
20260509045813 44 229 0.0 1.0 0.00 0.18 0.00 94 1012.2
20260509045051 44 229 0.0 1.0 0.00 0.19 0.00 94 1012.1